User: anonymous   Login
Location: Oshawa
(43.9000°N, 78.8670°W)
Time: 13:20:51
(UTC-05:00)
Language:

Thor Agena Rocket - Orbit

View from above orbital plane
View from above orbital plane
View from above satellite
View from above satellite

Ground track
Ground track

The orbit data is extracted from the following two-line orbital elements,

1 00733U 64002A   18022.02692738 -.00000008  00000-0  15065-4 0  9995
2 00733  99.1173 223.7112 0032916 263.3372  96.4063 14.32304886813638
Epoch (UTC): 22 January 2018 00:38:46
Eccentricity: 0.0032916
inclination: 99.1173°
perigee height: 760 km
apogee height: 807 km
right ascension of ascending node: 223.7112°
argument of perigee: 263.3372°
revolutions per day: 14.32304886
mean anomaly at epoch: 96.4063°
orbit number at epoch: 81363

The dashed part of the orbit path shows where the satellite is in the earth's shadow,  

DLR